Location: Unspecified
(56.5167°N, 0.0000°E)
Time: 11:21:27
(UTC+02:00)

Resurs 1-4 Rocket - Pass Details

Date: 03 August 2020
Orbit: 799 x 815 km, 98.6° (Epoch: 23 September)

Event Time Altitude Azimuth Distance (km) Brightness Sun altitude
Rises 01:47:08 0° 28° (NNE) 3,341 6.3 -15.9°
Reaches altitude 10° 01:51:42 10° 65° (ENE) 2,398 4.8 -16.0°
Maximum altitude 01:53:01 11° 79° (E) 2,334 4.6 -16.0°
Drops below altitude 10° 01:54:20 10° 94° (E) 2,391 4.5 -16.0°
Enters shadow 01:57:12 - 120° (ESE) 2,874 4.7 -16.0°
